Regional Weather Roundup
Issued by NWS Boston, MA

Home | Current Version | Previous Version | Text Only | Print | Product List | Glossary On
Versions: 1 2 3 4 5 6 7 8 9 10 11 12 13 14 15 16 17 18 19 20 21 22 23 24 25 26 27 28 29 30 31 32 33 34 35 36 37 38 39 40 41 42 43 44 45 46 47 48 49 50
000
ASUS41 KBOX 311710
RWRBOX

REGIONAL WEATHER ROUNDUP
NATIONAL WEATHER SERVICE TAUNTON MA
1200 PM EST SAT JAN 31 2015

NOTE:  "FAIR" INDICATES FEW OR NO CLOUDS BELOW 12,000 FEET WITH NO
SIGNIFICANT WEATHER AND/OR OBSTRUCTIONS TO VISIBILITY.  THE FOLLOWING
OBSERVATION LOCATIONS DO NOT REPORT PRESENT WEATHER...PROVINCETOWN...
SMITHFIELD...BLOCK ISLAND...KEENE...AND OXFORD.

MAZALL-311800-
EASTERN MASSACHUSETTS

CITY           SKY/WX    TMP DP  RH WIND       PRES   REMARKS
BOSTON         MOSUNNY   17  -5  37 NW29G40   29.84S WCI  -2
BEVERLY        CLOUDY    17  -5  37 NW20G30   29.81S WCI   1
LAWRENCE       PTSUNNY   14  -6  40 NW18G28   29.86S WCI  -3
BEDFORD        CLOUDY    17  -4  39 NW21G35   29.86F WCI   0
BLUE HILL        N/A     15  -6  39 NW29G39   29.77S WCI  -5
NORWOOD        CLOUDY    18  -7  32 NW16G22   29.86S WCI   3
MARSHFIELD     PTSUNNY   21   0  39 NW15G35   29.82R WCI   8
PLYMOUTH       CLOUDY    19  -5  34 NW25G36   29.80S WCI   1
TAUNTON        PTSUNNY   21  -6  30 NW20G31   29.83S WCI   6
NEW BEDFORD    SUNNY     21  -6  30 NW17G30   29.82S WCI   7
$$

MAZALL-311800-
CAPE COD AND THE ISLANDS

CITY           SKY/WX    TMP DP  RH WIND       PRES   REMARKS
FALMOUTH       MOSUNNY   19  -4  35 NW25G36   29.77S WCI   2
HYANNIS        CLOUDY    21   2  43 NW17G31   29.71F WCI   7
CHATHAM        MOSUNNY   20  10  65 NW15G35   29.73R WCI   6
PROVINCETOWN   MOSUNNY   21  10  63 NW31G39   29.77S WCI   3
NANTUCKET      CLOUDY    23   8  52 NW25G38   29.74S WCI   7
MARTHAS VNYRD  MOSUNNY   21  -2  36 NW26G39   29.79R WCI   4
$$

MAZALL-311800-
CENTRAL AND WESTERN MASSACHUSETTS

CITY           SKY/WX    TMP DP  RH WIND       PRES   REMARKS
WORCESTER      SUNNY    N/A N/A N/A NW24G30   29.84R
FITCHBURG      NOT AVBL
ORANGE         SUNNY     13  -8  39 NW18G33   29.95F WCI  -4
SPRINGFIELD    SUNNY     14  -6  41 NW22G31   29.97F WCI  -5
WESTFIELD      SUNNY     15  -7  37 NW22G29   29.99F WCI  -3
NORTH ADAMS    SUNNY      6 -12  43 NW12G20   30.09F WCI  -9
PITTSFIELD     SUNNY      5 -11  47 NW10G23   30.01F WCI -10
$$

RIZALL-311800-
RHODE ISLAND

CITY           SKY/WX    TMP DP  RH WIND       PRES   REMARKS
PROVIDENCE     MOSUNNY   19  -5  34 NW17G31   29.88F WCI   4
NEWPORT        MOSUNNY   18  -3  39 NW24G32   29.86R WCI   0
BLOCK ISLAND   SUNNY     19   0  42 NW21G32   29.88S WCI   3
SMITHFIELD     SUNNY     16  -6  38 NW23G37   29.84S WCI  -2
WESTERLY       SUNNY     18  -7  32 NW14G25   29.93S WCI   4
$$

CTZALL-311800-
CONNECTICUT

CITY           SKY/WX    TMP DP  RH WIND       PRES   REMARKS
BRADLEY INTL   SUNNY     15  -7  37 NW20G32   30.01S WCI  -2
HARTFORD       SUNNY     15  -9  33 N14G26    30.04F WCI   0
BRIDGEPORT     SUNNY     19  -4  36 NW21G32   30.05F WCI   3
DANBURY        SUNNY     16  -9  32 NW14G25   30.07F WCI   2
GROTON         SUNNY     16  -7  35 NW25G35   29.95F WCI  -3
NEW HAVEN      SUNNY     18  -7  32 NW14G31   30.03F WCI   4
CHESTER        FAIR      18  -9  29 NW16G35   29.96S WCI   3
MERIDEN        SUNNY     16  -7  35 NW21G43   30.02F WCI  -1
WILLIMANTIC    MIX PCPN  17  -7  34 NW17G32   29.95F WCI   1
OXFORD         SUNNY     12  -9  37 NW23G37   30.00S WCI  -7
$$

MEZ002-015-021-024-NHZ003-005-008-011-012-014-VTZ005-008-311800-
NORTHERN NEW ENGLAND

CITY           SKY/WX    TMP DP  RH WIND       PRES   REMARKS
PORTLAND ME    PTSUNNY   18   0  45 NW28G41   29.75F WCI  -1
BANGOR ME      LGT SNOW  11   6  81 NW20      29.65F VSB 3/4 WCI  -7
CONCORD NH     SUNNY     11  -7  44 NW16G32   29.89F WCI  -6
MANCHESTER NH  MOSUNNY   14  -7  38 NW24G37   29.87S WCI  -5
NASHUA NH      SUNNY     18  -4  37 NW29G39   29.88F WCI  -1
PORTSMOUTH NH  MOSUNNY   16  -4  40 W20G29    29.78F WCI  -1
JAFFREY NH     MIX PCPN  12  -9  38 NW12G21   29.87F WCI  -2
KEENE NH       SUNNY     12  -8  40 NW14G22   29.96S WCI  -3
BURLINGTON VT  MOSUNNY    2 -14  47 N12       30.17F WCI -15
MT. WASHINGTON MOSUNNY   -6 -24  41 NW71G87     N/A  WCI -44
$$

NYZ052-076-311800-
EASTERN NEW YORK

CITY           SKY/WX    TMP DP  RH WIND       PRES   REMARKS
ALBANY         SUNNY      9 -11  40 NW18      30.17F WCI -10
NEW YORK CITY  SUNNY     21   2  43 NW24G33   30.12F WCI   4
$$

ANZALL-311800-
MARINE OBSERVATIONS

STATION/POSITION TIME  TEMP    WIND        PRES    VSBY  WAVE
                       AIR SEA DIR/SP/G                  HT/PER
                 (UTC) (F)     (DEG/KT/KT) (MB)    (MI)  (FT/S)
BOSTON BUOY      1650   19 40  320/ 31/ 35 1009.0R         9/ 6
BUZZARDS BAY     1600          320/ 40/ 47 1009.6R
NANTUCKET SOUND  NOT AVBL
MASS BAY-STELLWA 1604   17 41  310/ 25/ 29   N/A    1 3/4  7/ 8
ISLE OF SHOALS   1700   16     300/ 26/ 31 1007.2F
S OF BLOCK IS    1608      42                N/A          12/ 7
$$

......................KEY.........................
  SKY/WX - SKY CONDITION/PRESENT WEATHER
  TMP    - TEMPERATURE IN FAHRENHEIT
  DWPT   - DEWPOINT IN FAHRENHEIT
  RH     - RELATIVE HUMIDITY IN PERCENT
  WIND   - DIRECTION AND SPEED IN MPH
  PRES   - MEAN SEA LEVEL PRESSURE IN INCHES OF HG
  WCI    - WIND CHILL INDEX
  VSB    - VISIBILITY IN MILES
  HX     - HEAT INDEX
  TC     - TEMPERATURE IN CELSIUS
  VRB    - VARIABLE WIND DIRECTION
  N/A    - NOT AVAILABLE


USA.gov is the U.S. government's official web portal to all federal, state and local government web resources and services.